When you browse on this site, cookies collect data to enhance your experience and personalize the content and advertising you see.
Visit our Privacy Policy to learn more. By continuing to use the site, you agree to this use of cookies and data.
  • In Schweiz
  • Länderverzeichnis
  • Für 7 Tage
  • Wassertemperatur
  • Satellitenkarten
  • Wetterkarte
  • Widgets
  • user-avatar
    Anmelden

    Stündliche Wetter Djelfa

    Heute, 23 Januar, Mittwoch

    Zeit Temperatur Niederschläge Wind Luftdruck Luftfeuchtigkeit
    00:00 -2°C° 0 mm 11 m/S 657 mmHg 84%
    01:00 -2°C° 0.1 mm 11 m/S 657 mmHg 85%
    02:00 -2°C° 0.1 mm 10 m/S 656 mmHg 85%
    03:00 -2°C° 0.1 mm 10 m/S 656 mmHg 86%
    04:00 -2°C° 0.1 mm 10 m/S 655 mmHg 87%
    05:00 -2°C° 0.1 mm 10 m/S 655 mmHg 87%
    06:00 -2°C° 0 mm 11 m/S 655 mmHg 89%
    07:00 -1°C° 0 mm 11 m/S 656 mmHg 86%
    08:00 -1°C° 0 mm 12 m/S 656 mmHg 83%
    09:00 -1°C° 0 mm 12 m/S 656 mmHg 80%
    10:00 0°C° 0.1 mm 12 m/S 656 mmHg 76%
    11:00 +1°C° 0.1 mm 13 m/S 655 mmHg 72%
    12:00 +3°C° 0.1 mm 13 m/S 655 mmHg 68%
    13:00 +3°C° 0 mm 13 m/S 655 mmHg 69%
    14:00 +3°C° 0 mm 13 m/S 655 mmHg 69%
    15:00 +3°C° 0 mm 14 m/S 654 mmHg 70%
    16:00 +3°C° 0.1 mm 14 m/S 654 mmHg 74%
    17:00 +3°C° 0.1 mm 14 m/S 654 mmHg 78%
    18:00 +1°C° 0.1 mm 14 m/S 654 mmHg 81%
    19:00 +1°C° 0.1 mm 15 m/S 654 mmHg 82%
    20:00 +1°C° 0.1 mm 15 m/S 654 mmHg 83%
    21:00 +1°C° 0.1 mm 15 m/S 654 mmHg 84%
    22:00 +1°C° 0 mm 16 m/S 653 mmHg 84%
    23:00 +1°C° 0 mm 16 m/S 653 mmHg 84%

    Morgen, 24 Januar, Donnerstag

    Zeit Temperatur Niederschläge Wind Luftdruck Luftfeuchtigkeit
    00:00 +1°C° 0 mm 17 m/S 653 mmHg 84%
    01:00 +1°C° 0.1 mm 18 m/S 652 mmHg 84%
    02:00 +1°C° 0.1 mm 18 m/S 652 mmHg 83%
    03:00 +1°C° 0.1 mm 18 m/S 652 mmHg 83%
    04:00 +1°C° 0.1 mm 18 m/S 652 mmHg 83%
    05:00 +1°C° 0.1 mm 19 m/S 651 mmHg 82%
    06:00 +1°C° 0.1 mm 19 m/S 651 mmHg 82%
    07:00 +1°C° 0.1 mm 19 m/S 651 mmHg 80%
    08:00 +1°C° 0.1 mm 19 m/S 652 mmHg 79%
    09:00 +1°C° 0.1 mm 19 m/S 652 mmHg 77%
    10:00 +2°C° 0.1 mm 19 m/S 652 mmHg 73%
    11:00 +2°C° 0.1 mm 19 m/S 653 mmHg 69%
    12:00 +3°C° 0.1 mm 19 m/S 653 mmHg 65%
    13:00 +2°C° 0.5 mm 17 m/S 653 mmHg 70%
    14:00 +1°C° 0.5 mm 16 m/S 653 mmHg 76%
    15:00 0°C° 0.5 mm 15 m/S 653 mmHg 82%
    16:00 -1°C° 0.7 mm 14 m/S 653 mmHg 81%
    17:00 -2°C° 0.7 mm 13 m/S 654 mmHg 80%
    18:00 -2°C° 0.7 mm 13 m/S 655 mmHg 79%
    19:00 -2°C° 0.2 mm 12 m/S 655 mmHg 80%
    20:00 -3°C° 0.2 mm 11 m/S 656 mmHg 81%
    21:00 -3°C° 0.2 mm 10 m/S 656 mmHg 81%
    22:00 -3°C° 0 mm 9 m/S 656 mmHg 84%
    23:00 -4°C° 0 mm 8 m/S 656 mmHg 86%

    übermorgen, 25 Januar, Freitag

    Zeit Temperatur Niederschläge Wind Luftdruck Luftfeuchtigkeit
    00:00 -3°C° 0 mm 7 m/S 657 mmHg 89%
    01:00 -3°C° 0 mm 7 m/S 657 mmHg 89%
    02:00 -4°C° 0 mm 7 m/S 657 mmHg 89%
    03:00 -4°C° 0 mm 7 m/S 657 mmHg 89%
    04:00 -4°C° 0 mm 7 m/S 657 mmHg 87%
    05:00 -4°C° 0 mm 7 m/S 657 mmHg 86%
    06:00 -4°C° 0 mm 7 m/S 657 mmHg 85%
    07:00 -4°C° 0 mm 8 m/S 658 mmHg 79%
    08:00 -2°C° 0 mm 8 m/S 659 mmHg 74%
    09:00 -1°C° 0 mm 9 m/S 659 mmHg 68%
    10:00 0°C° 0 mm 9 m/S 659 mmHg 63%
    11:00 +1°C° 0 mm 10 m/S 660 mmHg 58%
    12:00 +1°C° 0 mm 11 m/S 660 mmHg 52%
    13:00 +2°C° 0 mm 11 m/S 660 mmHg 49%
    14:00 +2°C° 0 mm 11 m/S 660 mmHg 45%
    15:00 +3°C° 0 mm 11 m/S 660 mmHg 41%
    16:00 +2°C° 0 mm 9 m/S 660 mmHg 45%
    17:00 +1°C° 0 mm 8 m/S 660 mmHg 49%
    18:00 0°C° 0 mm 7 m/S 660 mmHg 52%
    19:00 0°C° 0 mm 8 m/S 660 mmHg 58%
    20:00 0°C° 0 mm 9 m/S 660 mmHg 64%
    21:00 0°C° 0 mm 10 m/S 661 mmHg 70%
    22:00 0°C° 0 mm 10 m/S 660 mmHg 68%
    23:00 0°C° 0 mm 10 m/S 660 mmHg 66%

    26 Januar, Samstag

    Zeit Temperatur Niederschläge Wind Luftdruck Luftfeuchtigkeit
    00:00 0°C° 0 mm 10 m/S 660 mmHg 65%
    01:00 0°C° 0 mm 10 m/S 660 mmHg 74%
    02:00 -1°C° 0 mm 11 m/S 660 mmHg 83%
    03:00 -1°C° 0 mm 12 m/S 660 mmHg 91%
    04:00 -1°C° 0 mm 12 m/S 660 mmHg 92%
    05:00 -1°C° 0 mm 12 m/S 660 mmHg 93%
    06:00 -1°C° 0 mm 12 m/S 661 mmHg 94%
    07:00 0°C° 0 mm 12 m/S 661 mmHg 90%
    08:00 0°C° 0 mm 12 m/S 662 mmHg 87%
    09:00 +2°C° 0 mm 12 m/S 663 mmHg 83%
    10:00 +2°C° 0 mm 11 m/S 663 mmHg 78%
    11:00 +3°C° 0 mm 11 m/S 663 mmHg 73%
    12:00 +3°C° 0 mm 10 m/S 663 mmHg 67%
    13:00 +3°C° 0 mm 9 m/S 663 mmHg 65%
    14:00 +5°C° 0 mm 8 m/S 663 mmHg 62%
    15:00 +5°C° 0 mm 8 m/S 663 mmHg 60%
    16:00 +4°C° 0 mm 6 m/S 662 mmHg 65%
    17:00 +3°C° 0 mm 5 m/S 662 mmHg 70%
    18:00 +3°C° 0 mm 4 m/S 662 mmHg 76%
    19:00 +3°C° 0 mm 3 m/S 663 mmHg 79%
    20:00 +3°C° 0 mm 3 m/S 663 mmHg 82%
    21:00 +3°C° 0 mm 3 m/S 663 mmHg 85%
    22:00 +3°C° 0 mm 3 m/S 663 mmHg 84%
    23:00 +3°C° 0 mm 4 m/S 663 mmHg 84%

    27 Januar, Sonntag

    Zeit Temperatur Niederschläge Wind Luftdruck Luftfeuchtigkeit
    00:00 +3°C° 0 mm 4 m/S 662 mmHg 83%
    01:00 +2°C° 0 mm 5 m/S 662 mmHg 82%
    02:00 +2°C° 0 mm 5 m/S 662 mmHg 81%
    03:00 +1°C° 0 mm 6 m/S 661 mmHg 81%
    04:00 +1°C° 0 mm 6 m/S 661 mmHg 78%
    05:00 +1°C° 0 mm 6 m/S 661 mmHg 76%
    06:00 +1°C° 0 mm 6 m/S 661 mmHg 73%
    07:00 +2°C° 0 mm 6 m/S 661 mmHg 67%
    08:00 +3°C° 0 mm 7 m/S 661 mmHg 60%
    09:00 +5°C° 0 mm 8 m/S 661 mmHg 54%
    10:00 +6°C° 0 mm 8 m/S 661 mmHg 50%
    11:00 +7°C° 0 mm 9 m/S 661 mmHg 47%
    12:00 +8°C° 0 mm 9 m/S 660 mmHg 44%
    13:00 +8°C° 0 mm 9 m/S 660 mmHg 45%
    14:00 +8°C° 0 mm 10 m/S 659 mmHg 47%
    15:00 +8°C° 0 mm 10 m/S 658 mmHg 49%
    16:00 +7°C° 0 mm 10 m/S 658 mmHg 57%
    17:00 +6°C° 0 mm 9 m/S 658 mmHg 64%
    18:00 +5°C° 0 mm 9 m/S 658 mmHg 72%
    19:00 +5°C° 0.1 mm 9 m/S 658 mmHg 77%
    20:00 +3°C° 0.1 mm 9 m/S 658 mmHg 83%
    21:00 +2°C° 0.1 mm 10 m/S 658 mmHg 88%
    22:00 +1°C° 0.1 mm 10 m/S 658 mmHg 85%
    23:00 0°C° 0.1 mm 10 m/S 658 mmHg 83%

    28 Januar, Montag

    Zeit Temperatur Niederschläge Wind Luftdruck Luftfeuchtigkeit
    00:00 0°C° 0.1 mm 10 m/S 658 mmHg 80%
    01:00 -2°C° 0 mm 10 m/S 658 mmHg 81%
    02:00 -3°C° 0 mm 9 m/S 657 mmHg 82%
    03:00 -4°C° 0 mm 9 m/S 657 mmHg 83%
    04:00 -4°C° 0 mm 9 m/S 657 mmHg 84%
    05:00 -4°C° 0 mm 9 m/S 657 mmHg 84%
    06:00 -4°C° 0 mm 9 m/S 657 mmHg 85%
    07:00 -4°C° 0 mm 10 m/S 657 mmHg 79%
    08:00 -4°C° 0 mm 11 m/S 658 mmHg 72%
    09:00 -3°C° 0 mm 12 m/S 658 mmHg 66%
    10:00 -2°C° 0 mm 12 m/S 658 mmHg 61%
    11:00 -2°C° 0 mm 13 m/S 658 mmHg 55%
    12:00 -1°C° 0 mm 13 m/S 658 mmHg 50%
    13:00 -1°C° 0.1 mm 13 m/S 658 mmHg 51%
    14:00 -1°C° 0.1 mm 13 m/S 658 mmHg 51%
    15:00 -1°C° 0.1 mm 14 m/S 657 mmHg 51%
    16:00 -2°C° 0 mm 12 m/S 658 mmHg 55%
    17:00 -3°C° 0 mm 11 m/S 658 mmHg 60%
    18:00 -4°C° 0 mm 10 m/S 658 mmHg 64%
    19:00 -3°C° 0.1 mm 10 m/S 658 mmHg 68%
    20:00 -3°C° 0.1 mm 11 m/S 659 mmHg 72%
    21:00 -3°C° 0.1 mm 12 m/S 659 mmHg 76%
    22:00 -3°C° 0.3 mm 12 m/S 659 mmHg 79%
    23:00 -3°C° 0.3 mm 12 m/S 658 mmHg 81%
    Mehr zeigen